Time,TemperatureF,DewpointF,PressureIn,WindDirection,WindDirectionDegrees,WindSpeedMPH,WindSpeedGustMPH,Humidity,HourlyPrecipIn,Conditions,Clouds,dailyrainin,SoftwareType,DateUTC
2013-08-07 00:01:00,70.6,60.3,29.78,NE,43,0.0,0.0,70,0.00,,,0.00,Wunderground v.1.15,2013-08-07 07:01:00,
2013-08-07 00:07:00,70.9,60.2,29.78,West,271,0.0,0.0,69,0.00,,,0.00,Wunderground v.1.15,2013-08-07 07:07:00,
2013-08-07 00:12:00,71.2,60.1,29.77,WNW,293,4.0,4.0,68,0.00,,,0.00,Wunderground v.1.15,2013-08-07 07:12:00,
2013-08-07 00:17:00,71.0,60.7,29.77,NW,304,3.0,5.0,70,0.00,,,0.00,Wunderground v.1.15,2013-08-07 07:17:00,
2013-08-07 00:23:00,71.2,60.5,29.77,WNW,289,4.0,5.0,69,0.00,,,0.00,Wunderground v.1.15,2013-08-07 07:23:00,
2013-08-07 00:29:00,71.0,60.3,29.77,WNW,296,5.0,6.0,69,0.00,,,0.00,Wunderground v.1.15,2013-08-07 07:29:00,
2013-08-07 00:34:00,71.0,60.3,29.77,WNW,297,5.0,5.0,69,0.00,,,0.00,Wunderground v.1.15,2013-08-07 07:34:00,
2013-08-07 00:40:00,71.6,59.6,29.77,NW,306,4.0,4.0,66,0.00,,,0.00,Wunderground v.1.15,2013-08-07 07:40:00,
2013-08-07 00:45:00,71.9,59.9,29.77,NW,311,3.0,4.0,66,0.00,,,0.00,Wunderground v.1.15,2013-08-07 07:45:00,
2013-08-07 00:51:00,72.1,60.1,29.77,WNW,301,3.0,3.0,66,0.00,,,0.00,Wunderground v.1.15,2013-08-07 07:51:00,
2013-08-07 00:57:00,72.1,60.1,29.77,WNW,293,3.0,4.0,66,0.00,,,0.00,Wunderground v.1.15,2013-08-07 07:57:00,
2013-08-07 01:03:00,72.1,60.1,29.77,WNW,283,3.0,3.0,66,0.00,,,0.00,Wunderground v.1.15,2013-08-07 08:03:00,
2013-08-07 01:09:00,71.6,60.1,29.77,SSE,153,2.0,3.0,67,0.00,,,0.00,Wunderground v.1.15,2013-08-07 08:09:00,
2013-08-07 01:15:00,71.1,60.4,29.77,SSE,153,1.0,2.0,69,0.00,,,0.00,Wunderground v.1.15,2013-08-07 08:15:00,
2013-08-07 01:21:00,71.0,60.7,29.77,West,281,0.0,0.0,70,0.00,,,0.00,Wunderground v.1.15,2013-08-07 08:21:00,
2013-08-07 01:26:00,71.4,60.3,29.77,West,281,1.0,4.0,68,0.00,,,0.00,Wunderground v.1.15,2013-08-07 08:26:00,
2013-08-07 01:31:00,71.8,60.2,29.77,WNW,301,3.0,4.0,67,0.00,,,0.00,Wunderground v.1.15,2013-08-07 08:31:00,
2013-08-07 01:37:00,71.6,60.5,29.77,WNW,301,4.0,5.0,68,0.00,,,0.00,Wunderground v.1.15,2013-08-07 08:37:00,
2013-08-07 01:42:00,71.5,60.8,29.77,WNW,303,4.0,4.0,69,0.00,,,0.00,Wunderground v.1.15,2013-08-07 08:42:00,
2013-08-07 01:48:00,71.2,60.5,29.76,NW,314,4.0,5.0,69,0.00,,,0.00,Wunderground v.1.15,2013-08-07 08:48:00,
2013-08-07 01:53:00,71.2,60.9,29.76,NW,304,3.0,4.0,70,0.00,,,0.00,Wunderground v.1.15,2013-08-07 08:53:00,
2013-08-07 01:59:00,71.4,61.1,29.77,WNW,296,3.0,4.0,70,0.00,,,0.00,Wunderground v.1.15,2013-08-07 08:59:00,
2013-08-07 02:04:00,71.5,61.2,29.76,WNW,301,4.0,5.0,70,0.00,,,0.00,Wunderground v.1.15,2013-08-07 09:04:00,
2013-08-07 02:10:00,71.4,61.1,29.76,WNW,301,4.0,4.0,70,0.00,,,0.00,Wunderground v.1.15,2013-08-07 09:10:00,
2013-08-07 02:15:00,71.3,61.4,29.76,WNW,303,4.0,5.0,71,0.00,,,0.00,Wunderground v.1.15,2013-08-07 09:15:00,
2013-08-07 02:21:00,71.3,61.4,29.76,WNW,290,4.0,4.0,71,0.00,,,0.00,Wunderground v.1.15,2013-08-07 09:21:00,
2013-08-07 02:27:00,71.6,61.3,29.76,WNW,300,3.0,4.0,70,0.00,,,0.00,Wunderground v.1.15,2013-08-07 09:27:00,
2013-08-07 02:32:00,71.6,60.9,29.76,WNW,289,3.0,4.0,69,0.00,,,0.00,Wunderground v.1.15,2013-08-07 09:32:00,
2013-08-07 02:38:00,71.6,60.9,29.76,WNW,301,3.0,4.0,69,0.00,,,0.00,Wunderground v.1.15,2013-08-07 09:38:00,
2013-08-07 02:43:00,71.4,61.1,29.76,NW,307,3.0,3.0,70,0.00,,,0.00,Wunderground v.1.15,2013-08-07 09:43:00,
2013-08-07 02:49:00,71.5,61.2,29.76,WNW,301,3.0,3.0,70,0.00,,,0.00,Wunderground v.1.15,2013-08-07 09:49:00,
2013-08-07 02:54:00,71.5,61.2,29.75,NW,307,3.0,3.0,70,0.00,,,0.00,Wunderground v.1.15,2013-08-07 09:54:00,
2013-08-07 02:59:00,71.4,61.1,29.75,North,351,2.0,3.0,70,0.00,,,0.00,Wunderground v.1.15,2013-08-07 09:59:00,
2013-08-07 03:04:00,71.2,60.9,29.75,NNW,330,3.0,5.0,70,0.00,,,0.00,Wunderground v.1.15,2013-08-07 10:04:00,
2013-08-07 03:10:00,71.4,61.1,29.75,NW,319,4.0,4.0,70,0.00,,,0.00,Wunderground v.1.15,2013-08-07 10:10:00,
2013-08-07 03:16:00,71.5,60.8,29.75,NW,323,3.0,4.0,69,0.00,,,0.00,Wunderground v.1.15,2013-08-07 10:16:00,
2013-08-07 03:21:00,71.4,61.1,29.75,NW,320,3.0,3.0,70,0.00,,,0.00,Wunderground v.1.15,2013-08-07 10:21:00,
2013-08-07 03:27:00,70.8,60.9,29.75,WNW,301,2.0,4.0,71,0.00,,,0.00,Wunderground v.1.15,2013-08-07 10:27:00,
2013-08-07 03:33:00,70.9,61.0,29.76,WNW,301,3.0,6.0,71,0.00,,,0.00,Wunderground v.1.15,2013-08-07 10:33:00,
2013-08-07 03:39:00,70.8,60.9,29.75,NW,311,5.0,6.0,71,0.00,,,0.00,Wunderground v.1.15,2013-08-07 10:39:00,
2013-08-07 03:44:00,70.6,61.1,29.76,NNW,330,4.0,6.0,72,0.00,,,0.00,Wunderground v.1.15,2013-08-07 10:44:00,
2013-08-07 03:50:00,70.6,61.1,29.76,NNW,339,4.0,4.0,72,0.00,,,0.00,Wunderground v.1.15,2013-08-07 10:50:00,
2013-08-07 03:56:00,70.7,60.8,29.76,NW,323,5.0,5.0,71,0.00,,,0.00,Wunderground v.1.15,2013-08-07 10:56:00,
2013-08-07 04:01:00,70.9,61.0,29.76,NNW,339,4.0,4.0,71,0.00,,,0.00,Wunderground v.1.15,2013-08-07 11:01:00,
2013-08-07 04:07:00,70.9,61.0,29.76,NNW,340,5.0,7.0,71,0.00,,,0.00,Wunderground v.1.15,2013-08-07 11:07:00,
2013-08-07 04:13:00,70.9,61.0,29.76,NNW,339,4.0,5.0,71,0.00,,,0.00,Wunderground v.1.15,2013-08-07 11:13:00,
2013-08-07 04:18:00,70.7,60.8,29.76,NW,318,3.0,5.0,71,0.00,,,0.00,Wunderground v.1.15,2013-08-07 11:18:00,
2013-08-07 04:24:00,71.1,60.8,29.77,NNW,332,3.0,7.0,70,0.00,,,0.00,Wunderground v.1.15,2013-08-07 11:24:00,
2013-08-07 04:29:00,71.2,60.9,29.77,NNW,328,4.0,7.0,70,0.00,,,0.00,Wunderground v.1.15,2013-08-07 11:29:00,
2013-08-07 04:34:00,71.4,61.1,29.77,NW,309,4.0,5.0,70,0.00,,,0.00,Wunderground v.1.15,2013-08-07 11:34:00,
2013-08-07 04:40:00,71.7,59.7,29.77,NNW,340,3.0,3.0,66,0.00,,,0.00,Wunderground v.1.15,2013-08-07 11:40:00,
2013-08-07 04:46:00,72.0,59.2,29.77,NW,316,3.0,3.0,64,0.00,,,0.00,Wunderground v.1.15,2013-08-07 11:46:00,
2013-08-07 04:51:00,72.5,59.6,29.78,NW,304,2.0,3.0,64,0.00,,,0.00,Wunderground v.1.15,2013-08-07 11:51:00,
2013-08-07 04:57:00,72.6,59.3,29.78,WNW,293,3.0,4.0,63,0.00,,,0.00,Wunderground v.1.15,2013-08-07 11:57:00,
2013-08-07 05:03:00,72.8,59.0,29.79,NW,318,4.0,4.0,62,0.00,,,0.00,Wunderground v.1.15,2013-08-07 12:03:00,
2013-08-07 05:09:00,72.5,59.6,29.79,NNW,327,3.0,4.0,64,0.00,,,0.00,Wunderground v.1.15,2013-08-07 12:09:00,
2013-08-07 05:14:00,72.4,59.5,29.79,NW,326,2.0,3.0,64,0.00,,,0.00,Wunderground v.1.15,2013-08-07 12:14:00,
2013-08-07 05:20:00,72.5,59.2,29.79,NW,314,2.0,2.0,63,0.00,,,0.00,Wunderground v.1.15,2013-08-07 12:20:00,
2013-08-07 05:25:00,72.7,58.5,29.79,NNE,12,1.0,2.0,61,0.00,,,0.00,Wunderground v.1.15,2013-08-07 12:25:00,
2013-08-07 05:31:00,73.1,58.8,29.80,NE,54,1.0,2.0,61,0.00,,,0.00,Wunderground v.1.15,2013-08-07 12:31:00,
2013-08-07 05:36:00,73.1,59.3,29.80,NE,54,2.0,5.0,62,0.00,,,0.00,Wunderground v.1.15,2013-08-07 12:36:00,
2013-08-07 05:41:00,73.2,60.3,29.80,NNW,347,3.0,4.0,64,0.00,,,0.00,Wunderground v.1.15,2013-08-07 12:41:00,
2013-08-07 05:47:00,73.0,59.7,29.80,ENE,68,4.0,4.0,63,0.00,,,0.00,Wunderground v.1.15,2013-08-07 12:47:00,
2013-08-07 05:52:00,72.9,59.6,29.79,North,353,3.0,4.0,63,0.00,,,0.00,Wunderground v.1.15,2013-08-07 12:52:00,
2013-08-07 05:58:00,72.6,59.7,29.80,SE,138,3.0,4.0,64,0.00,,,0.00,Wunderground v.1.15,2013-08-07 12:58:00,
2013-08-07 06:03:00,72.2,60.2,29.80,SE,138,3.0,4.0,66,0.00,,,0.00,Wunderground v.1.15,2013-08-07 13:03:00,
2013-08-07 06:09:00,71.9,59.9,29.80,ENE,65,3.0,4.0,66,0.00,,,0.00,Wunderground v.1.15,2013-08-07 13:09:00,
2013-08-07 06:14:00,71.6,60.5,29.80,SE,131,2.0,3.0,68,0.00,,,0.00,Wunderground v.1.15,2013-08-07 13:14:00,
2013-08-07 06:20:00,70.9,61.0,29.80,ENE,64,2.0,4.0,71,0.00,,,0.00,Wunderground v.1.15,2013-08-07 13:20:00,
2013-08-07 06:25:00,70.5,60.6,29.79,NNE,29,4.0,6.0,71,0.00,,,0.00,Wunderground v.1.15,2013-08-07 13:25:00,
2013-08-07 06:31:00,70.6,60.7,29.79,NNE,22,5.0,5.0,71,0.00,,,0.00,Wunderground v.1.15,2013-08-07 13:31:00,
2013-08-07 06:36:00,70.4,60.1,29.79,North,357,5.0,6.0,70,0.00,,,0.00,Wunderground v.1.15,2013-08-07 13:36:00,
2013-08-07 06:41:00,70.4,60.1,29.79,NNW,329,4.0,4.0,70,0.00,,,0.00,Wunderground v.1.15,2013-08-07 13:41:00,
2013-08-07 06:47:00,70.4,60.1,29.80,North,353,4.0,6.0,70,0.00,,,0.00,Wunderground v.1.15,2013-08-07 13:47:00,
2013-08-07 06:52:00,70.5,60.2,29.80,NNW,347,5.0,6.0,70,0.00,,,0.00,Wunderground v.1.15,2013-08-07 13:52:00,
2013-08-07 06:58:00,70.6,59.9,29.79,NNW,336,5.0,6.0,69,0.00,,,0.00,Wunderground v.1.15,2013-08-07 13:58:00,
2013-08-07 07:04:00,71.0,59.9,29.80,NNW,337,6.0,7.0,68,0.00,,,0.00,Wunderground v.1.15,2013-08-07 14:04:00,
2013-08-07 07:10:00,71.1,60.0,29.80,NW,326,6.0,7.0,68,0.00,,,0.00,Wunderground v.1.15,2013-08-07 14:10:00,
2013-08-07 07:15:00,71.3,60.2,29.80,NNW,339,6.0,7.0,68,0.00,,,0.00,Wunderground v.1.15,2013-08-07 14:15:00,
2013-08-07 07:21:00,71.6,60.5,29.80,NNW,339,5.0,5.0,68,0.00,,,0.00,Wunderground v.1.15,2013-08-07 14:21:00,
2013-08-07 07:27:00,72.3,60.3,29.80,North,352,4.0,5.0,66,0.00,,,0.00,Wunderground v.1.15,2013-08-07 14:27:00,
2013-08-07 07:33:00,73.6,59.8,29.81,NNW,334,4.0,4.0,62,0.00,,,0.00,Wunderground v.1.15,2013-08-07 14:33:00,
2013-08-07 07:39:00,74.9,60.1,29.81,NE,37,3.0,4.0,60,0.00,,,0.00,Wunderground v.1.15,2013-08-07 14:39:00,
2013-08-07 07:45:00,76.0,60.2,29.81,ENE,63,2.0,3.0,58,0.00,,,0.00,Wunderground v.1.15,2013-08-07 14:45:00,
2013-08-07 07:51:00,76.1,59.8,29.81,NE,51,3.0,5.0,57,0.00,,,0.00,Wunderground v.1.15,2013-08-07 14:51:00,
2013-08-07 07:56:00,76.1,59.3,29.81,NE,44,4.0,5.0,56,0.00,,,0.00,Wunderground v.1.15,2013-08-07 14:56:00,
2013-08-07 08:01:00,76.3,58.4,29.81,NNE,15,4.0,4.0,54,0.00,,,0.00,Wunderground v.1.15,2013-08-07 15:01:00,
2013-08-07 08:07:00,76.9,59.0,29.81,ENE,74,3.0,4.0,54,0.00,,,0.00,Wunderground v.1.15,2013-08-07 15:07:00,
2013-08-07 08:13:00,77.6,59.1,29.81,NE,49,1.0,3.0,53,0.00,,,0.00,Wunderground v.1.15,2013-08-07 15:13:00,
2013-08-07 08:19:00,77.7,58.7,29.81,ENE,69,2.0,4.0,52,0.00,,,0.00,Wunderground v.1.15,2013-08-07 15:19:00,
2013-08-07 08:24:00,78.1,58.5,29.81,NNE,29,2.0,2.0,51,0.00,,,0.00,Wunderground v.1.15,2013-08-07 15:24:00,
2013-08-07 08:29:00,78.3,58.7,29.81,SE,130,2.0,4.0,51,0.00,,,0.00,Wunderground v.1.15,2013-08-07 15:29:00,
2013-08-07 08:34:00,79.3,59.6,29.81,NE,51,2.0,2.0,51,0.00,,,0.00,Wunderground v.1.15,2013-08-07 15:34:00,
2013-08-07 08:40:00,79.1,58.9,29.81,NNE,15,2.0,3.0,50,0.00,,,0.00,Wunderground v.1.15,2013-08-07 15:40:00,
2013-08-07 08:46:00,79.6,58.8,29.81,ENE,71,2.0,6.0,49,0.00,,,0.00,Wunderground v.1.15,2013-08-07 15:46:00,
2013-08-07 08:51:00,79.4,59.1,29.81,ENE,77,3.0,3.0,50,0.00,,,0.00,Wunderground v.1.15,2013-08-07 15:51:00,
2013-08-07 08:57:00,80.3,60.0,29.81,East,97,3.0,4.0,50,0.00,,,0.00,Wunderground v.1.15,2013-08-07 15:57:00,
2013-08-07 09:02:00,80.6,60.2,29.81,East,97,3.0,5.0,50,0.00,,,0.00,Wunderground v.1.15,2013-08-07 16:02:00,
2013-08-07 09:08:00,81.0,60.0,29.81,ESE,106,3.0,6.0,49,0.00,,,0.00,Wunderground v.1.15,2013-08-07 16:08:00,
2013-08-07 09:13:00,80.6,59.1,29.81,WSW,242,3.0,5.0,48,0.00,,,0.00,Wunderground v.1.15,2013-08-07 16:13:00,
2013-08-07 09:19:00,81.4,59.8,29.81,East,87,3.0,5.0,48,0.00,,,0.00,Wunderground v.1.15,2013-08-07 16:19:00,
2013-08-07 09:24:00,82.1,59.9,29.81,NE,51,2.0,5.0,47,0.00,,,0.00,Wunderground v.1.15,2013-08-07 16:24:00,
2013-08-07 09:30:00,81.7,60.1,29.81,ESE,108,2.0,5.0,48,0.00,,,0.00,Wunderground v.1.15,2013-08-07 16:30:00,
2013-08-07 09:35:00,81.9,59.7,29.81,SW,214,2.0,5.0,47,0.00,,,0.00,Wunderground v.1.15,2013-08-07 16:35:00,
2013-08-07 09:41:00,82.8,59.9,29.81,East,83,3.0,3.0,46,0.00,,,0.00,Wunderground v.1.15,2013-08-07 16:41:00,
2013-08-07 09:47:00,82.8,59.3,29.81,NW,326,2.0,3.0,45,0.00,,,0.00,Wunderground v.1.15,2013-08-07 16:47:00,
2013-08-07 09:52:00,82.8,59.3,29.80,East,82,3.0,4.0,45,0.00,,,0.00,Wunderground v.1.15,2013-08-07 16:52:00,
2013-08-07 09:57:00,82.9,59.4,29.80,NE,49,2.0,4.0,45,0.00,,,0.00,Wunderground v.1.15,2013-08-07 16:57:00,
2013-08-07 10:03:00,83.4,59.8,29.80,East,82,1.0,3.0,45,0.00,,,0.00,Wunderground v.1.15,2013-08-07 17:03:00,
2013-08-07 10:09:00,84.1,60.5,29.80,SE,127,2.0,5.0,45,0.00,,,0.00,Wunderground v.1.15,2013-08-07 17:09:00,
2013-08-07 10:15:00,85.2,60.2,29.80,WSW,257,3.0,5.0,43,0.00,,,0.00,Wunderground v.1.15,2013-08-07 17:15:00,
2013-08-07 10:21:00,85.2,60.2,29.80,East,86,3.0,5.0,43,0.00,,,0.00,Wunderground v.1.15,2013-08-07 17:21:00,
2013-08-07 10:26:00,84.7,60.4,29.80,South,169,4.0,6.0,44,0.00,,,0.00,Wunderground v.1.15,2013-08-07 17:26:00,
2013-08-07 10:31:00,85.0,60.0,29.80,ENE,72,3.0,4.0,43,0.00,,,0.00,Wunderground v.1.15,2013-08-07 17:31:00,
2013-08-07 10:37:00,86.5,60.0,29.79,SE,124,2.0,4.0,41,0.00,,,0.00,Wunderground v.1.15,2013-08-07 17:37:00,
2013-08-07 10:43:00,86.6,60.1,29.79,SSE,166,3.0,5.0,41,0.00,,,0.00,Wunderground v.1.15,2013-08-07 17:43:00,
2013-08-07 10:49:00,86.1,59.6,29.79,South,176,4.0,5.0,41,0.00,,,0.00,Wunderground v.1.15,2013-08-07 17:49:00,
2013-08-07 10:55:00,86.3,59.8,29.79,SW,214,4.0,9.0,41,0.00,,,0.00,Wunderground v.1.15,2013-08-07 17:55:00,
2013-08-07 11:01:00,86.7,59.5,29.79,SSW,198,4.0,7.0,40,0.00,,,0.00,Wunderground v.1.15,2013-08-07 18:01:00,
2013-08-07 11:07:00,87.0,59.0,29.79,East,91,4.0,7.0,39,0.00,,,0.00,Wunderground v.1.15,2013-08-07 18:07:00,
2013-08-07 11:12:00,87.6,58.9,29.79,SW,225,4.0,7.0,38,0.00,,,0.00,Wunderground v.1.15,2013-08-07 18:12:00,
2013-08-07 11:17:00,88.1,58.6,29.78,SW,214,4.0,10.0,37,0.00,,,0.00,Wunderground v.1.15,2013-08-07 18:17:00,
2013-08-07 11:22:00,87.4,58.7,29.78,WSW,242,6.0,10.0,38,0.00,,,0.00,Wunderground v.1.15,2013-08-07 18:22:00,
2013-08-07 11:28:00,88.1,58.6,29.78,SW,219,7.0,10.0,37,0.00,,,0.00,Wunderground v.1.15,2013-08-07 18:28:00,
2013-08-07 11:33:00,88.2,57.9,29.78,SW,229,7.0,8.0,36,0.00,,,0.00,Wunderground v.1.15,2013-08-07 18:33:00,
2013-08-07 11:39:00,88.1,57.8,29.78,West,263,7.0,11.0,36,0.00,,,0.00,Wunderground v.1.15,2013-08-07 18:39:00,
2013-08-07 11:44:00,86.9,57.5,29.77,WNW,295,6.0,7.0,37,0.00,,,0.00,Wunderground v.1.15,2013-08-07 18:44:00,
2013-08-07 11:50:00,88.3,58.0,29.77,SW,233,4.0,11.0,36,0.00,,,0.00,Wunderground v.1.15,2013-08-07 18:50:00,
2013-08-07 11:55:00,87.8,57.5,29.77,SSW,203,6.0,14.0,36,0.00,,,0.00,Wunderground v.1.15,2013-08-07 18:55:00,
2013-08-07 12:01:00,87.7,57.4,29.77,West,270,7.0,8.0,36,0.00,,,0.00,Wunderground v.1.15,2013-08-07 19:01:00,
2013-08-07 12:07:00,87.1,56.9,29.76,WSW,239,7.0,12.0,36,0.00,,,0.00,Wunderground v.1.15,2013-08-07 19:07:00,
2013-08-07 12:12:00,87.4,57.9,29.77,SW,217,7.0,8.0,37,0.00,,,0.00,Wunderground v.1.15,2013-08-07 19:12:00,
2013-08-07 12:18:00,87.4,57.2,29.77,WSW,249,7.0,12.0,36,0.00,,,0.00,Wunderground v.1.15,2013-08-07 19:18:00,
2013-08-07 12:23:00,87.9,57.6,29.76,SW,226,7.0,7.0,36,0.00,,,0.00,Wunderground v.1.15,2013-08-07 19:23:00,
2013-08-07 12:28:00,88.5,57.4,29.76,West,281,4.0,10.0,35,0.00,,,0.00,Wunderground v.1.15,2013-08-07 19:28:00,
2013-08-07 12:34:00,87.9,56.8,29.76,WSW,240,6.0,9.0,35,0.00,,,0.00,Wunderground v.1.15,2013-08-07 19:34:00,
2013-08-07 12:40:00,87.7,56.7,29.76,SW,236,7.0,7.0,35,0.00,,,0.00,Wunderground v.1.15,2013-08-07 19:40:00,
2013-08-07 12:45:00,87.5,57.3,29.76,West,276,8.0,11.0,36,0.00,,,0.00,Wunderground v.1.15,2013-08-07 19:45:00,
2013-08-07 12:51:00,87.9,57.6,29.76,SW,229,6.0,7.0,36,0.00,,,0.00,Wunderground v.1.15,2013-08-07 19:51:00,
2013-08-07 12:57:00,88.4,57.3,29.75,NE,47,4.0,7.0,35,0.00,,,0.00,Wunderground v.1.15,2013-08-07 19:57:00,
2013-08-07 13:02:00,88.3,57.2,29.75,WNW,298,4.0,7.0,35,0.00,,,0.00,Wunderground v.1.15,2013-08-07 20:02:00,
2013-08-07 13:08:00,88.1,57.0,29.75,WNW,285,5.0,10.0,35,0.00,,,0.00,Wunderground v.1.15,2013-08-07 20:08:00,
2013-08-07 13:13:00,88.8,58.4,29.75,SSW,197,6.0,7.0,36,0.00,,,0.00,Wunderground v.1.15,2013-08-07 20:13:00,
2013-08-07 13:19:00,88.4,57.3,29.75,WSW,245,7.0,11.0,35,0.00,,,0.00,Wunderground v.1.15,2013-08-07 20:19:00,
2013-08-07 13:25:00,88.6,56.6,29.75,NNE,12,6.0,9.0,34,0.00,,,0.00,Wunderground v.1.15,2013-08-07 20:25:00,
2013-08-07 13:31:00,89.2,57.2,29.74,SSW,208,4.0,5.0,34,0.00,,,0.00,Wunderground v.1.15,2013-08-07 20:31:00,
2013-08-07 13:37:00,90.0,57.0,29.74,SW,231,4.0,9.0,33,0.00,,,0.00,Wunderground v.1.15,2013-08-07 20:37:00,
2013-08-07 13:42:00,89.6,56.7,29.74,SW,232,7.0,14.0,33,0.00,,,0.00,Wunderground v.1.15,2013-08-07 20:42:00,
2013-08-07 13:47:00,88.8,56.0,29.74,SW,214,10.0,14.0,33,0.00,,,0.00,Wunderground v.1.15,2013-08-07 20:47:00,
2013-08-07 13:52:00,89.6,57.5,29.74,WSW,244,7.0,11.0,34,0.00,,,0.00,Wunderground v.1.15,2013-08-07 20:52:00,
2013-08-07 13:58:00,88.7,56.7,29.74,WSW,250,6.0,11.0,34,0.00,,,0.00,Wunderground v.1.15,2013-08-07 20:58:00,
2013-08-07 14:03:00,89.4,56.5,29.74,SW,229,6.0,7.0,33,0.00,,,0.00,Wunderground v.1.15,2013-08-07 21:03:00,
2013-08-07 14:09:00,90.8,56.9,29.73,SW,221,4.0,7.0,32,0.00,,,0.00,Wunderground v.1.15,2013-08-07 21:09:00,
2013-08-07 14:14:00,90.2,55.5,29.73,SW,223,6.0,17.0,31,0.00,,,0.00,Wunderground v.1.15,2013-08-07 21:14:00,
2013-08-07 14:20:00,90.0,55.3,29.73,SW,219,7.0,7.0,31,0.00,,,0.00,Wunderground v.1.15,2013-08-07 21:20:00,
2013-08-07 14:25:00,89.6,54.1,29.73,SW,219,7.0,11.0,30,0.00,,,0.00,Wunderground v.1.15,2013-08-07 21:25:00,
2013-08-07 14:31:00,90.1,54.5,29.73,SW,226,7.0,11.0,30,0.00,,,0.00,Wunderground v.1.15,2013-08-07 21:31:00,
2013-08-07 14:36:00,89.4,53.9,29.73,SW,232,7.0,14.0,30,0.00,,,0.00,Wunderground v.1.15,2013-08-07 21:36:00,
2013-08-07 14:42:00,89.8,54.2,29.73,SSE,159,9.0,9.0,30,0.00,,,0.00,Wunderground v.1.15,2013-08-07 21:42:00,
2013-08-07 14:47:00,90.1,52.6,29.72,WSW,245,6.0,9.0,28,0.00,,,0.00,Wunderground v.1.15,2013-08-07 21:47:00,
2013-08-07 14:52:00,90.4,49.8,29.72,SW,220,5.0,5.0,25,0.00,,,0.00,Wunderground v.1.15,2013-08-07 21:52:00,
2013-08-07 14:58:00,90.1,50.6,29.72,WSW,250,7.0,12.0,26,0.00,,,0.00,Wunderground v.1.15,2013-08-07 21:58:00,
2013-08-07 15:04:00,89.6,51.2,29.72,NNW,334,7.0,8.0,27,0.00,,,0.00,Wunderground v.1.15,2013-08-07 22:04:00,
2013-08-07 15:10:00,90.5,52.9,29.72,SSW,210,5.0,8.0,28,0.00,,,0.00,Wunderground v.1.15,2013-08-07 22:10:00,
2013-08-07 15:16:00,90.0,51.5,29.72,West,277,7.0,13.0,27,0.00,,,0.00,Wunderground v.1.15,2013-08-07 22:16:00,
2013-08-07 15:22:00,89.8,51.4,29.71,WNW,295,8.0,12.0,27,0.00,,,0.00,Wunderground v.1.15,2013-08-07 22:22:00,
2013-08-07 15:28:00,89.9,52.4,29.71,SSW,203,7.0,13.0,28,0.00,,,0.00,Wunderground v.1.15,2013-08-07 22:28:00,
2013-08-07 15:33:00,90.7,52.1,29.71,SW,224,6.0,8.0,27,0.00,,,0.00,Wunderground v.1.15,2013-08-07 22:33:00,
2013-08-07 15:39:00,91.5,51.8,29.70,SW,219,5.0,16.0,26,0.00,,,0.00,Wunderground v.1.15,2013-08-07 22:39:00,
2013-08-07 15:44:00,90.8,51.2,29.71,WSW,239,7.0,13.0,26,0.00,,,0.00,Wunderground v.1.15,2013-08-07 22:44:00,
2013-08-07 15:50:00,90.6,51.0,29.70,SW,236,7.0,7.0,26,0.00,,,0.00,Wunderground v.1.15,2013-08-07 22:50:00,
2013-08-07 15:55:00,90.7,51.1,29.70,SSW,206,6.0,7.0,26,0.00,,,0.00,Wunderground v.1.15,2013-08-07 22:55:00,
2013-08-07 16:01:00,90.7,52.1,29.70,West,277,6.0,6.0,27,0.00,,,0.00,Wunderground v.1.15,2013-08-07 23:01:00,
2013-08-07 16:07:00,91.1,51.4,29.70,SW,224,5.0,8.0,26,0.00,,,0.00,Wunderground v.1.15,2013-08-07 23:07:00,
2013-08-07 16:13:00,91.4,51.7,29.70,NNW,329,4.0,13.0,26,0.00,,,0.00,Wunderground v.1.15,2013-08-07 23:13:00,
2013-08-07 16:19:00,91.0,52.4,29.70,West,269,6.0,13.0,27,0.00,,,0.00,Wunderground v.1.15,2013-08-07 23:19:00,
2013-08-07 16:24:00,91.5,52.8,29.70,SE,141,4.0,6.0,27,0.00,,,0.00,Wunderground v.1.15,2013-08-07 23:24:00,
2013-08-07 16:29:00,91.5,51.8,29.69,WNW,295,3.0,7.0,26,0.00,,,0.00,Wunderground v.1.15,2013-08-07 23:29:00,
2013-08-07 16:34:00,92.0,52.2,29.69,WSW,257,4.0,10.0,26,0.00,,,0.00,Wunderground v.1.15,2013-08-07 23:34:00,
2013-08-07 16:40:00,91.0,51.4,29.69,SW,231,6.0,6.0,26,0.00,,,0.00,Wunderground v.1.15,2013-08-07 23:40:00,
2013-08-07 16:45:00,90.8,51.2,29.69,WNW,298,6.0,9.0,26,0.00,,,0.00,Wunderground v.1.15,2013-08-07 23:45:00,
2013-08-07 16:51:00,91.2,50.5,29.69,SSW,203,2.0,3.0,25,0.00,,,0.00,Wunderground v.1.15,2013-08-07 23:51:00,
2013-08-07 16:57:00,91.3,50.5,29.68,WNW,301,3.0,13.0,25,0.00,,,0.00,Wunderground v.1.15,2013-08-07 23:57:00,
2013-08-07 17:02:00,91.0,51.4,29.69,West,277,5.0,5.0,26,0.00,,,0.00,Wunderground v.1.15,2013-08-08 00:02:00,
2013-08-07 17:08:00,90.9,51.3,29.68,SSW,207,5.0,9.0,26,0.00,,,0.00,Wunderground v.1.15,2013-08-08 00:08:00,
2013-08-07 17:14:00,91.1,51.4,29.68,East,83,4.0,5.0,26,0.00,,,0.00,Wunderground v.1.15,2013-08-08 00:14:00,
2013-08-07 17:20:00,91.5,51.8,29.68,South,177,2.0,2.0,26,0.00,,,0.00,Wunderground v.1.15,2013-08-08 00:20:00,
2013-08-07 17:25:00,92.1,51.2,29.68,SSW,204,2.0,7.0,25,0.00,,,0.00,Wunderground v.1.15,2013-08-08 00:25:00,
2013-08-07 17:31:00,91.1,51.4,29.68,WSW,257,5.0,6.0,26,0.00,,,0.00,Wunderground v.1.15,2013-08-08 00:31:00,
2013-08-07 17:37:00,90.8,52.2,29.68,SSE,165,6.0,7.0,27,0.00,,,0.00,Wunderground v.1.15,2013-08-08 00:37:00,
2013-08-07 17:42:00,90.9,52.3,29.68,SSW,201,5.0,6.0,27,0.00,,,0.00,Wunderground v.1.15,2013-08-08 00:42:00,
2013-08-07 17:48:00,90.8,52.2,29.68,SSW,199,4.0,6.0,27,0.00,,,0.00,Wunderground v.1.15,2013-08-08 00:48:00,
2013-08-07 17:53:00,90.8,52.2,29.68,SSW,207,3.0,4.0,27,0.00,,,0.00,Wunderground v.1.15,2013-08-08 00:53:00,
2013-08-07 17:59:00,90.7,52.1,29.67,NW,323,2.0,5.0,27,0.00,,,0.00,Wunderground v.1.15,2013-08-08 00:59:00,
2013-08-07 18:05:00,90.5,52.0,29.67,WSW,255,2.0,2.0,27,0.00,,,0.00,Wunderground v.1.15,2013-08-08 01:05:00,
2013-08-07 18:11:00,90.5,52.9,29.67,SW,224,2.0,3.0,28,0.00,,,0.00,Wunderground v.1.15,2013-08-08 01:11:00,
2013-08-07 18:16:00,90.2,51.7,29.67,SW,233,2.0,3.0,27,0.00,,,0.00,Wunderground v.1.15,2013-08-08 01:16:00,
2013-08-07 18:21:00,89.5,52.1,29.67,SW,219,3.0,4.0,28,0.00,,,0.00,Wunderground v.1.15,2013-08-08 01:21:00,
2013-08-07 18:26:00,88.7,52.4,29.67,SSW,211,3.0,4.0,29,0.00,,,0.00,Wunderground v.1.15,2013-08-08 01:26:00,
2013-08-07 18:32:00,88.3,52.9,29.67,South,181,2.0,3.0,30,0.00,,,0.00,Wunderground v.1.15,2013-08-08 01:32:00,
2013-08-07 18:38:00,88.0,52.7,29.67,ESE,105,2.0,3.0,30,0.00,,,0.00,Wunderground v.1.15,2013-08-08 01:38:00,
2013-08-07 18:43:00,87.5,52.2,29.68,SW,231,1.0,2.0,30,0.00,,,0.00,Wunderground v.1.15,2013-08-08 01:43:00,
2013-08-07 18:49:00,87.0,52.7,29.68,SW,229,1.0,2.0,31,0.00,,,0.00,Wunderground v.1.15,2013-08-08 01:49:00,
2013-08-07 18:54:00,87.2,52.0,29.68,North,349,1.0,2.0,30,0.00,,,0.00,Wunderground v.1.15,2013-08-08 01:54:00,
2013-08-07 19:00:00,87.1,51.9,29.68,West,271,3.0,3.0,30,0.00,,,0.00,Wunderground v.1.15,2013-08-08 02:00:00,
2013-08-07 19:05:00,87.1,52.8,29.68,West,260,2.0,3.0,31,0.00,,,0.00,Wunderground v.1.15,2013-08-08 02:05:00,
2013-08-07 19:11:00,86.9,51.7,29.68,West,274,1.0,1.0,30,0.00,,,0.00,Wunderground v.1.15,2013-08-08 02:11:00,
2013-08-07 19:17:00,86.8,52.5,29.68,WNW,282,1.0,1.0,31,0.00,,,0.00,Wunderground v.1.15,2013-08-08 02:17:00,
2013-08-07 19:23:00,87.0,51.8,29.68,WNW,298,1.0,2.0,30,0.00,,,0.00,Wunderground v.1.15,2013-08-08 02:23:00,
2013-08-07 19:29:00,86.9,52.6,29.68,WNW,290,1.0,3.0,31,0.00,,,0.00,Wunderground v.1.15,2013-08-08 02:29:00,
2013-08-07 19:34:00,86.4,53.1,29.68,NNW,339,2.0,3.0,32,0.00,,,0.00,Wunderground v.1.15,2013-08-08 02:34:00,
2013-08-07 19:40:00,85.7,52.4,29.68,WNW,300,3.0,3.0,32,0.00,,,0.00,Wunderground v.1.15,2013-08-08 02:40:00,
2013-08-07 19:46:00,85.5,53.1,29.68,NW,311,2.0,3.0,33,0.00,,,0.00,Wunderground v.1.15,2013-08-08 02:46:00,
2013-08-07 19:52:00,84.9,53.4,29.68,NW,307,2.0,3.0,34,0.00,,,0.00,Wunderground v.1.15,2013-08-08 02:52:00,
2013-08-07 19:57:00,84.7,54.0,29.68,NNW,328,2.0,5.0,35,0.00,,,0.00,Wunderground v.1.15,2013-08-08 02:57:00,
2013-08-07 20:02:00,84.4,53.8,29.68,NNW,328,4.0,6.0,35,0.00,,,0.00,Wunderground v.1.15,2013-08-08 03:02:00,
2013-08-07 20:08:00,84.4,53.8,29.68,NW,326,6.0,6.0,35,0.00,,,0.00,Wunderground v.1.15,2013-08-08 03:08:00,
2013-08-07 20:14:00,84.4,53.8,29.68,NW,326,5.0,6.0,35,0.00,,,0.00,Wunderground v.1.15,2013-08-08 03:14:00,
2013-08-07 20:19:00,84.2,53.6,29.68,NW,323,5.0,6.0,35,0.00,,,0.00,Wunderground v.1.15,2013-08-08 03:19:00,
2013-08-07 20:24:00,83.9,54.1,29.68,NW,326,5.0,6.0,36,0.00,,,0.00,Wunderground v.1.15,2013-08-08 03:24:00,
2013-08-07 20:30:00,83.8,54.0,29.69,NNW,329,6.0,7.0,36,0.00,,,0.00,Wunderground v.1.15,2013-08-08 03:30:00,
2013-08-07 20:36:00,83.6,53.8,29.69,NNW,330,6.0,7.0,36,0.00,,,0.00,Wunderground v.1.15,2013-08-08 03:36:00,
2013-08-07 20:41:00,83.4,54.4,29.69,NW,321,6.0,7.0,37,0.00,,,0.00,Wunderground v.1.15,2013-08-08 03:41:00,
2013-08-07 20:47:00,83.3,54.3,29.69,NNW,328,6.0,7.0,37,0.00,,,0.00,Wunderground v.1.15,2013-08-08 03:47:00,
2013-08-07 20:52:00,83.4,54.4,29.69,NNW,330,7.0,7.0,37,0.00,,,0.00,Wunderground v.1.15,2013-08-08 03:52:00,
2013-08-07 20:58:00,83.4,54.4,29.69,NNW,330,7.0,7.0,37,0.00,,,0.00,Wunderground v.1.15,2013-08-08 03:58:00,
2013-08-07 21:01:00,83.3,54.3,29.69,NNW,332,7.0,7.0,37,0.00,,,0.00,Wunderground v.1.15,2013-08-08 04:01:00,
2013-08-07 21:02:00,83.4,54.4,29.69,NNW,332,7.0,7.0,37,0.00,,,0.00,Wunderground v.1.15,2013-08-08 04:02:00,
2013-08-07 21:03:00,83.4,54.4,29.69,NW,326,7.0,7.0,37,0.00,,,0.00,Wunderground v.1.15,2013-08-08 04:03:00,
2013-08-07 21:04:00,83.4,54.4,29.69,NNW,342,7.0,7.0,37,0.00,,,0.00,Wunderground v.1.15,2013-08-08 04:04:00,
2013-08-07 21:05:00,83.4,54.4,29.69,NNW,332,7.0,7.0,37,0.00,,,0.00,Wunderground v.1.15,2013-08-08 04:05:00,
2013-08-07 21:11:00,83.4,54.4,29.69,NNW,332,7.0,7.0,37,0.00,,,0.00,Wunderground v.1.15,2013-08-08 04:11:00,
2013-08-07 21:17:00,83.1,54.1,29.69,NW,304,6.0,7.0,37,0.00,,,0.00,Wunderground v.1.15,2013-08-08 04:17:00,
2013-08-07 21:23:00,83.1,54.1,29.69,NW,326,6.0,6.0,37,0.00,,,0.00,Wunderground v.1.15,2013-08-08 04:23:00,
2013-08-07 21:29:00,83.3,53.6,29.69,NNW,345,6.0,6.0,36,0.00,,,0.00,Wunderground v.1.15,2013-08-08 04:29:00,
2013-08-07 21:35:00,83.2,53.5,29.69,NNW,330,6.0,8.0,36,0.00,,,0.00,Wunderground v.1.15,2013-08-08 04:35:00,
2013-08-07 21:41:00,83.0,53.3,29.69,NW,326,7.0,7.0,36,0.00,,,0.00,Wunderground v.1.15,2013-08-08 04:41:00,
2013-08-07 21:47:00,83.1,53.4,29.69,NW,323,6.0,7.0,36,0.00,,,0.00,Wunderground v.1.15,2013-08-08 04:47:00,
2013-08-07 21:52:00,83.0,54.0,29.69,NNW,332,6.0,7.0,37,0.00,,,0.00,Wunderground v.1.15,2013-08-08 04:52:00,
2013-08-07 21:58:00,82.5,54.3,29.70,NW,320,7.0,8.0,38,0.00,,,0.00,Wunderground v.1.15,2013-08-08 04:58:00,
2013-08-07 22:04:00,82.1,54.0,29.70,NNW,332,7.0,7.0,38,0.00,,,0.00,Wunderground v.1.15,2013-08-08 05:04:00,
2013-08-07 22:10:00,82.0,53.9,29.69,NNW,328,7.0,8.0,38,0.00,,,0.00,Wunderground v.1.15,2013-08-08 05:10:00,
2013-08-07 22:15:00,81.9,53.8,29.69,NNW,346,7.0,8.0,38,0.00,,,0.00,Wunderground v.1.15,2013-08-08 05:15:00,
2013-08-07 22:21:00,82.2,53.3,29.70,NNW,346,6.0,7.0,37,0.00,,,0.00,Wunderground v.1.15,2013-08-08 05:21:00,
2013-08-07 22:26:00,82.6,53.7,29.70,North,1,6.0,7.0,37,0.00,,,0.00,Wunderground v.1.15,2013-08-08 05:26:00,
2013-08-07 22:31:00,82.6,53.7,29.70,NNW,330,6.0,6.0,37,0.00,,,0.00,Wunderground v.1.15,2013-08-08 05:31:00,
2013-08-07 22:37:00,82.2,54.1,29.70,NNW,330,6.0,8.0,38,0.00,,,0.00,Wunderground v.1.15,2013-08-08 05:37:00,
2013-08-07 22:42:00,82.1,54.0,29.70,NW,315,6.0,6.0,38,0.00,,,0.00,Wunderground v.1.15,2013-08-08 05:42:00,
2013-08-07 22:47:00,82.3,53.4,29.70,NNW,335,6.0,7.0,37,0.00,,,0.00,Wunderground v.1.15,2013-08-08 05:47:00,
2013-08-07 22:52:00,82.7,53.8,29.70,NNW,328,6.0,6.0,37,0.00,,,0.00,Wunderground v.1.15,2013-08-08 05:52:00,
2013-08-07 22:58:00,82.4,53.5,29.70,NNW,330,6.0,8.0,37,0.00,,,0.00,Wunderground v.1.15,2013-08-08 05:58:00,
2013-08-07 23:04:00,82.3,53.4,29.69,NW,323,7.0,7.0,37,0.00,,,0.00,Wunderground v.1.15,2013-08-08 06:04:00,
2013-08-07 23:10:00,82.5,53.6,29.69,NNW,347,7.0,7.0,37,0.00,,,0.00,Wunderground v.1.15,2013-08-08 06:10:00,
2013-08-07 23:15:00,82.6,53.7,29.69,NNW,335,6.0,7.0,37,0.00,,,0.00,Wunderground v.1.15,2013-08-08 06:15:00,
2013-08-07 23:21:00,82.7,53.0,29.69,NNW,327,6.0,6.0,36,0.00,,,0.00,Wunderground v.1.15,2013-08-08 06:21:00,
2013-08-07 23:27:00,83.2,52.7,29.69,NW,326,5.0,6.0,35,0.00,,,0.00,Wunderground v.1.15,2013-08-08 06:27:00,
2013-08-07 23:32:00,83.4,52.9,29.69,NNW,334,3.0,4.0,35,0.00,,,0.00,Wunderground v.1.15,2013-08-08 06:32:00,
2013-08-07 23:38:00,83.4,52.9,29.69,NW,326,3.0,4.0,35,0.00,,,0.00,Wunderground v.1.15,2013-08-08 06:38:00,
2013-08-07 23:43:00,83.0,53.3,29.69,NNW,329,4.0,6.0,36,0.00,,,0.00,Wunderground v.1.15,2013-08-08 06:43:00,
2013-08-07 23:49:00,82.7,53.0,29.69,NNW,328,5.0,6.0,36,0.00,,,0.00,Wunderground v.1.15,2013-08-08 06:49:00,
2013-08-07 23:54:00,82.8,53.1,29.69,NNW,332,5.0,5.0,36,0.00,,,0.00,Wunderground v.1.15,2013-08-08 06:54:00,
2013-08-07 23:59:00,82.5,52.9,29.69,NW,323,4.0,5.0,36,0.00,,,0.00,Wunderground v.1.15,2013-08-08 06:59:00,